Regional Weather Roundup
Issued by NWS Newport/Morehead, NC

Current Version | Previous Version | Text Only | Print | Product List | Glossary Off
Versions: 1 2 3 4 5 6 7 8 9 10 11 12 13 14 15 16 17 18 19 20 21 22 23 24 25 26 27 28 29 30 31 32 33 34 35 36 37 38 39 40 41 42 43 44 45 46 47 48 49 50
000 ASUS42 KMHX 230110 RWRMHX WEATHER ROUNDUP FOR EASTERN NORTH CAROLINA NATIONAL WEATHER SERVICE NEWPORT/MOREHEAD CITY NC 900 PM EDT MON SEP 22 2014 NOTE: "FAIR" INDICATES FEW OR NO CLOUDS BELOW 12,000 FEET WITH NO SIGNIFICANT WEATHER AND/OR OBSTRUCTIONS TO VISIBILITY NCZ015>017-031-032-045>047-102-103-230200- NORTH COAST CITY SKY/WX TMP DP RH WIND PRES REMARKS EDENTON MOCLDY 66 60 83 NE3 30.12R ELIZABETH CITY PTCLDY 67 58 72 NE6 30.10R KITTY HAWK CLEAR 69 58 67 CALM 30.09R MANTEO CLEAR 69 58 69 NE8 30.10R $$ NCZ045>047-081-094-103-104-230200- CENTRAL COAST CITY SKY/WX TMP DP RH WIND PRES REMARKS FRISCO CLEAR 68 60 75 VRB5 30.09R SWANQUARTER N/A 68 N/A N/A E3 30.06R $$ NCZ095-097-098-100-101-230200- SOUTHERN COAST CITY SKY/WX TMP DP RH WIND PRES REMARKS BEAUFORT PTCLDY 71 64 78 NE3 30.09R CEDAR ISLAND N/A 73 N/A N/A NE12 30.12R JACKSONVILLE CLOUDY 72 61 68 NE6 30.09R NEWPORT NOT AVBL PINEY ISLAND PTCLDY 75 63 66 NE7 30.09R WILMINGTON LGT RAIN 70 67 90 SW8 30.10R $$ NCZ011>013-027>030-043-044-078>080-089-090>093-098-230200- COASTAL PLAIN CITY SKY/WX TMP DP RH WIND PRES REMARKS AHOSKIE MOCLDY 62 58 86 CALM 30.12R CLINTON CLOUDY 70 61 73 N3 30.11R ELIZABETHTOWN CLOUDY 71 60 70 NW5 30.11R GOLDSBORO CLOUDY 71 61 71 N1 30.09R GREENVILLE CLOUDY 66 59 77 N3 30.12R HAVELOCK MOCLDY 71 63 75 CALM 30.10R KENANSVILLE CLOUDY 68 61 78 CALM 30.11R KINSTON CLOUDY 66 63 88 CALM 30.11R NEW BERN MOCLDY 69 64 84 CALM 30.10R RICHLANDS CLOUDY 68 61 77 CALM 30.09S ROANOKE RAPIDS NOT AVBL ROCKY MOUNT CLOUDY 65 59 81 CALM 30.12R WASHINGTON CLOUDY 65 60 81 CALM 30.11R WHITEVILLE LGT RAIN 68 66 91 CALM 30.10R $$ AMZ130-135-150-152-154-156-158-170-250-252-270-ANZ085-086-088-633-658-670-230200- MARINE OBSERVATIONS STATION/POSITION TIME TEMP WIND PRES WAVE SWELL AIR SEA DIR/SP/G HT/PER HT/PER (UTC) (F) (DEG/KT/KT) (MB) (FT/S) (FT/S) CHESAPEAKE LIGHT 0000 71 360/ 11/ 12 1019.5 BUOY 44014 0100 71 76 360/ 12/ 16 1018.5 3/ 8 3/ 8 DUCK 0100 72 75 30/ 11/ 12 1018.4 2E DUCK NOT AVBL OREGON INLET 0100 71 76 30/ 8/ 11 1019.0 BUOY 44095 NOT AVBL 20E OREGON INLET NOT AVBL HATTERAS CG NOT AVBL DIAMOND BUOY 0100 74 360/ 16/ 17 1018.1 4/ 7 2/10 CAPE LOOKOUT 0000 75 30/ 10/ 11 1017.7 BEAUFORT LAB 0100 72 77 60/ 4/ 4 1018.2 30 SE NEW RIVER 0100 77 82 30/ 10/ 12 1017.8 3/ 7 2/ 7 5 SE WRIGHTSVILL 0000 71 79 120/ 8/ 8 N/A BUOY 41002 0014 80 81 200/ 2/ 4 1018.4 3/ 8 3/ 8 BUOY 41004 0100 77 82 360/ 16/ 19 1016.9 3/ 8 2/ 8 $$

USA.gov is the U.S. government's official web portal to all federal, state and local government web resources and services.